Location: Harbor Island
(32.3990°N, 80.4435°W)
Time: 08:44:52
(UTC-04:00)

Daily predictions for brighter satellites

Satellite Brightness Start Highest point End
(mag) Time Altitude Azimuth Time Altitude Azimuth Time Altitude Azimuth
Cosmos 1869 3.5 20:46:15 10° N 20:50:14 79° W 20:54:12 10° S
Lacrosse 5 rocket 2.6 20:51:00 10° SSE 20:53:13 16° ESE 20:55:26 10° E
Aurora 2 Rocket 3.8 20:48:20 10° WSW 20:53:34 33° SSW 20:57:26 10° SE
USA 186 1.9 20:51:52 10° SE 20:54:12 36° ENE 20:56:44 10° N
Cosmos 1939 Rocket 4.2 20:52:21 10° SE 20:55:45 25° ENE 20:59:10 10° NNE
Cosmos 2369 Rocket 3.3 20:54:39 10° SSE 20:58:58 23° E 21:03:19 10° NE
Cosmos 2034 Rocket 4.1 20:54:19 10° N 21:00:25 57° E 21:06:27 10° SSE
Cosmos 1933 3.9 20:57:17 10° NNE 21:01:02 37° E 21:04:46 10° SSE
Cosmos 1346 Rocket 4.5 21:01:47 10° NNE 21:04:28 17° ENE 21:06:52 11° ESE
Spot 2 Rocket 3.5 21:01:04 10° SSE 21:06:10 82° ENE 21:11:17 10° N
NOSS 3-2 (A) 3.6 21:01:48 10° SSW 21:07:40 79° WNW 21:14:02 10° NNE
Cosmos 1464 Rocket 4.1 21:01:47 10° N 21:08:09 87° W 21:14:31 10° S
Cosmos 2242 Rocket 3.6 21:15:37 10° N 21:20:06 86° W 21:24:31 10° S
Shenzhou-11 Module 4.5 21:19:41 10° NNW 21:21:46 17° NNE 21:23:52 10° ENE
Star 37E S/N 40062 3.5 21:21:00 10° WSW 21:22:57 43° S 21:25:15 17° ESE
NOSS 3-2 (C) 3.6 21:21:08 10° SW 21:27:01 77° WNW 21:33:25 10° NNE
Resurs 01 Rocket 2.8 21:24:19 10° S 21:28:30 43° W 21:32:44 10° NNW
Helios 1B rocket 2.4 21:24:33 10° NNE 21:28:38 62° E 21:32:41 10° S
Meteor 2-3 Rocket 3.7 21:27:13 10° S 21:32:55 70° E 21:38:35 10° NNE
Envisat 3.1 21:27:55 10° S 21:32:59 81° WSW 21:38:04 10° NNW
Hubble Space Telescope 1.9 21:29:57 10° WSW 21:33:35 30° SSW 21:35:33 20° SSE
Cosmos 1933 Rocket 4.2 21:29:55 10° SSW 21:34:10 56° W 21:38:26 10° N
Timation 2 Rocket 4.0 21:27:50 10° NNW 21:34:14 78° ENE 21:39:49 15° SSE
SJ-11-01 4.2 21:32:07 12° SSE 21:36:30 79° ENE 21:41:13 10° N
Meteor 1-26 Rocket 4.2 21:32:11 10° N 21:37:49 68° E 21:42:43 14° SSE
YAOGAN 6 2.8 21:36:03 21° SSE 21:38:18 56° ENE 21:41:56 10° N
Cosmos 990 Rocket 4.4 21:36:14 10° SSW 21:41:23 67° WNW 21:46:35 10° N
Cosmos 1862 Rocket 3.8 21:38:04 10° N 21:42:33 71° W 21:46:59 10° S
Delta 2 Rocket 4.5 21:36:50 10° WSW 21:43:16 54° S 21:48:24 21° ESE
Aureole 3 3.6 21:45:28 29° E 21:45:28 29° E 21:48:02 10° NNE
Cosmos 1125 Rocket 4.1 21:42:20 19° SSE 21:45:27 35° E 21:50:11 10° NE
ARGOS 4.3 21:43:34 20° ESE 21:45:45 27° ENE 21:50:10 10° NNE
Aureole 1 3.9 21:43:36 14° S 21:46:07 72° ESE 21:49:13 10° NNE
CENTAUR R/B 2.5 21:43:13 10° S 21:48:44 48° ESE 21:54:52 10° NE
Helios 1A 2.9 21:46:03 19° SSE 21:48:56 90° SE 21:53:09 10° NNW
Cosmos 2344 4.0 21:42:03 10° S 21:49:04 37° ESE 21:56:08 10° NE
Meteor 2-10 Rocket 4.4 21:45:14 10° NNW 21:50:55 55° W 21:56:31 10° S
GPS 2-04 Rocket1 3.1 21:48:08 10° W 21:51:45 52° N 21:53:59 20° ENE
Cosmos 2082 Rocket 3.5 21:46:47 10° NW 21:51:56 37° WSW 21:57:05 10° S
SAR-Lupe-1 4.4 21:54:23 39° ESE 21:55:10 48° ENE 21:58:37 10° N
ISS -2.5 21:55:26 10° WSW 21:58:31 41° NW 22:01:38 10° NNE
COSMOS 2455 3.0 21:54:08 10° SSW 22:00:07 78° WNW 22:06:10 10° NNE
Cosmos 1825 2.7 22:03:09 38° E 22:03:09 38° E 22:06:31 10° NNE
OAO 3 Copernicus 4.3 21:58:20 10° WSW 22:03:17 59° SSE 22:05:39 29° E
H-2A R/B 3.3 22:03:42 24° E 22:04:57 27° ENE 22:09:23 10° NNE
Cosmos 1833 Rocket 4.4 22:00:28 10° NW 22:05:14 29° WSW 22:09:58 10° SSW
Cosmos 1408 2.9 22:06:04 46° E 22:06:04 46° E 22:09:33 10° NNE
Terra 4.1 22:06:29 11° ENE 22:06:34 11° ENE 22:07:29 10° NE
SPOT 5 3.7 22:10:02 34° ESE 22:11:26 40° ENE 22:16:24 10° N
DNEPR-1 R/B 3.8 22:09:12 10° SSW 22:14:53 78° ESE 22:19:37 10° NNE
Okean 1-7 3.1 22:10:48 10° N 22:15:10 60° E 22:15:50 53° ESE
Cosmos 1703 Rocket 3.6 22:14:55 10° N 22:19:20 76° W 22:20:45 42° S
Tiangong 2 2.7 22:16:52 10° NW 22:19:42 28° NNE 22:19:51 28° NNE
MetOp-A 4.0 22:22:42 42° SSE 22:24:35 84° ENE 22:29:57 10° N
Cosmos 2263 4.3 22:19:56 10° SSW 22:25:42 80° WNW 22:31:28 10° NNE
OAO 2 Rocket 3.4 22:23:30 10° W 22:28:24 56° SSW 22:28:53 53° S
Cosmos 1943 Rocket 2.0 22:24:18 18° SSW 22:28:35 85° ESE 22:34:11 10° NNE
Cosmos 1733 Rocket 4.3 22:29:55 28° NE 22:29:55 28° NE 22:32:33 10° NNE
NOAA 11 4.3 22:28:14 36° S 22:30:32 72° WSW 22:36:02 10° NNW
Lacrosse 5 rocket 2.9 22:28:55 10° WSW 22:32:07 31° NW 22:35:22 10° NNE
Cosmos 158 Rocket 4.2 22:33:27 10° N 22:38:05 47° ENE 22:38:05 47° ENE
Delta 168 4.4 22:37:16 10° WSW 22:39:53 30° SW 22:39:53 30° SW
Nimbus 7 Rocket 4.2 22:36:42 10° NNE 22:42:36 76° ESE 22:44:06 51° S
Cosmos 2369 Rocket 3.6 22:37:28 10° SW 22:42:40 38° WNW 22:47:56 10° N
Cosmos 1340 3.8 22:40:43 10° N 22:43:13 37° NNE 22:43:13 37° NNE
Cosmos 2221 Rocket 4.0 22:40:35 10° NNW 22:44:55 55° W 22:45:32 50° SW
ERS-1 Rocket 3.7 22:43:22 34° SSW 22:45:02 47° W 22:49:54 10° NNW
Cosmos 1606 3.5 22:47:58 10° NNW 22:50:58 48° NW 22:50:58 48° NW
Cosmos 1048 Rocket 4.0 22:46:52 10° N 22:52:08 67° ENE 22:52:08 67° ENE
DMSP B5D2-2 4.0 22:47:39 10° NNE 22:52:33 67° ENE 22:52:33 67° ENE
Meteor 1-10 Rocket 4.5 22:47:50 10° NNW 22:53:44 70° W 22:55:13 50° SSW
Meteor 1-27 Rocket 3.6 22:49:17 10° N 22:55:00 68° E 22:55:10 68° E
Cosmos 2084 4.4 22:57:47 10° NNW 23:00:25 42° NW 23:00:25 42° NW
Cosmos 1092 Rocket 4.1 23:02:41 56° E 23:02:41 56° E 23:08:22 10° NNE
GEOS 3 Rocket 4.3 23:02:34 40° NE 23:02:36 40° NE 23:07:26 10° NNW
SPOT 1/Viking Rocket 3.4 23:02:51 84° WSW 23:02:51 84° WSW 23:08:04 10° NNW
USA 215 3.1 23:04:05 64° SSE 23:05:13 81° SW 23:11:48 10° NW
Nadezhda 4 Rocket 3.8 23:04:23 69° S 23:05:15 89° E 23:11:28 10° N
Lacrosse 4 Rocket 2.9 23:12:50 10° NNW 23:15:43 35° N 23:15:43 35° N
ATLAS 5 CENTAUR R/B 2.6 23:11:39 10° NNW 23:17:46 62° ENE 23:17:52 62° ENE
H-2A R/B 4.0 23:20:16 21° NNE 23:20:16 21° NNE 23:21:52 10° N
Cosmos 1269 Rocket 4.4 23:17:59 10° NNW 23:22:37 60° WNW 23:22:37 60° WNW
Milstar 3 3.0 23:15:58 10° WSW 23:25:14 62° S 23:25:14 62° S
ARGOS 4.4 23:25:05 30° WSW 23:25:49 31° W 23:30:31 10° NW
SL-19 R/B 4.5 23:21:59 10° NNE 23:27:29 73° NE 23:27:29 73° NE
Cosmos 1656 Rocket 4.0 23:31:51 60° NW 23:31:51 60° NW 23:36:52 10° NNE
CENTAUR R/B 4.5 23:34:43 10° WSW 23:39:38 25° NW 23:45:04 10° N
Terra 3.1 23:45:22 39° NNW 23:45:22 39° NNW 23:48:25 10° NNW
H-2A R/B 3.5 23:44:21 32° W 23:44:21 32° W 23:48:56 10° NW
Cosmos 2227 Rocket 4.4 23:51:40 10° NNE 23:54:18 15° NE 23:54:18 15° NE
